Regional Weather Roundup
Issued by NWS

Home | Current Version | Previous Version | Graphics & Text | Print | Product List | Glossary On
Versions: 1 2 3 4 5 6 7 8 9 10 11 12 13 14 15 16 17 18 19 20 21 22 23 24 25 26 27 28 29 30 31 32 33 34 35 36 37 38 39 40 41 42 43 44 45 46 47 48 49 50
000
ASUS45 KBOU 311307
RWRCO

WEATHER ROUNDUP FOR COLORADO
NATIONAL WEATHER SERVICE DENVER/BOULDER CO
600 AM MST SAT JAN 31 2015

NOTE: "FAIR" INDICATES FEW OR NO CLOUDS BELOW 12000 FEET WITH NO
SIGNIFICANT WEATHER AND/OR OBSTRUCTIONS TO VISIBILITY.

COZ001>005-013-030-031-311400-
...NORTHWEST COLORADO...

CITY           SKY/WX    TMP DP  RH WIND       PRES   REMARKS
CRAIG          FLURRIES  33  31  92 SW7       29.90S WCI  27
HAYDEN         CLOUDY    32  28  86 W7        29.89R VSB 1/4 WCI  26
MEEKER         MIX PCPN  33  32  96 CALM      29.90R VSB 3/4
MOUNT WERNER   NOT AVBL
STEAMBOAT SPGS CLOUDY    30  30  99 SW3       29.88R
WALDEN         CLOUDY    28  27  93 CALM      29.88R
$$

COZ006>008-011-311400-
...WEST CENTRAL VALLEYS...

CITY           SKY/WX    TMP DP  RH WIND       PRES   REMARKS
GRAND JUNCTION LGT RAIN  38  38 100 W6        29.89S FOG
MONTROSE       CLOUDY    36  36 100 N3        29.90S FOG
EAGLE          CLOUDY    32  32 100 CALM      29.91R
RIFLE          LGT RAIN  35  34  96 CALM      29.89S VSB 1
DELTA          LGT RAIN  39  39 100 CALM      29.89S
NUCLA          LGT SNOW  32  32 100 CALM      29.93S
$$

COZ017>023-064>068-311400-
...SOUTHWEST COLORADO...

CITY           SKY/WX    TMP DP  RH WIND       PRES   REMARKS
DURANGO        LGT SNOW  32  31  96 CALM      29.89S FOG
CORTEZ         CLOUDY    34  33  96 CALM      29.89R
PAGOSA SPRINGS LGT SNOW  34  34 100 CALM      29.90S
TELLURIDE      LGT SNOW  30  30 100 W5        29.90S WCI  25
WOLF CREEK PAS SNOW      21  21 100 SW13G20   29.95S VSB 1/4 WCI   9
$$

COZ009-010-012-014-032>034-037-058>063-311400-
...CENTRAL COLORADO...

CITY           SKY/WX    TMP DP  RH WIND       PRES   REMARKS
ASPEN          CLOUDY    32  30  92 CALM      29.87R
BUENA VISTA    CLOUDY    30  29  96 CALM      29.91R FOG
COPPER MTN     CLOUDY    27  21  80 W7        29.92S WCI  19
BERTHOUD PASS  CLOUDY    19  14  79 NW9       29.93F WCI   9
COTTONWOOD PAS FOG       30  27  86 CALM      29.91R VSB<1/4
GUNNISON       CLOUDY    28  25  86 CALM      29.89S
KREMMLING      LGT SNOW  30  28  93 CALM      29.90F
LEADVILLE      CLOUDY    23  22  96 N3        29.89F
MONARCH PASS   FOG       25  23  93 MISG      30.02R VSB<1/4
SALIDA         CLOUDY    32  32  99 CALM      29.98S
SUNLIGHT       MIX PCPN  30  28  93 CALM        N/A
WILKERSON PASS CLOUDY   N/A N/A N/A SW8       29.92F FOG
$$

COZ069>075-311400-
...SAN LUIS VALLEY/SANGRE DE CRISTO MOUNTAINS...

CITY           SKY/WX    TMP DP  RH WIND       PRES   REMARKS
ALAMOSA        CLOUDY    29  28  96 SW3       29.91R
LA VETA PASS   LGT SNOW  27  25  93 S6        29.91R WCI  20
SAGUACHE       CLOUDY    30  28  93 E3        29.90F
$$

COZ035-036-038>040-311400-
...NORTHERN COLORADO FRONT RANGE...

CITY           SKY/WX    TMP DP  RH WIND       PRES   REMARKS
DENVER INTL AP CLOUDY    32  24  72 CALM      29.91F
DMNS CITY PARK   N/A     32  24  71 NE1       29.91S
AURORA         MOCLDY    31  23  74 N5        29.91F WCI  26
FRONT RANGE AP NOT AVBL
ERIE MUNI ARPT CLOUDY    32  28  86 CALM      29.92F
BOULDER MUN AP CLOUDY    34  27  75 CALM      29.92F
CENTENNIAL     MOCLDY    32  23  69 N3        29.90F
BROOMFIELD     CLOUDY    34  27  75 NW6       29.92F WCI  29
FORT COLLINS   PTCLDY    32  25  74 SE5       29.93S WCI  27
LONGMONT       CLOUDY    35  28  76 CALM      29.94F
$$

COZ041-046-047-076>085-087-088-311400-
...PIKES PEAK/PALMER DIVIDE AND SOUTHERN FOOTHILLS...

CITY           SKY/WX    TMP DP  RH WIND       PRES   REMARKS
COLO. SPRINGS  MOCLDY    35  26  69 CALM      29.89F
A. F. ACADEMY  MOCLDY    32  26  79 NW3       29.88F
ELLICOTT       CLOUDY   N/A N/A N/A CALM      29.88F
FALCON         CLOUDY    32  22  68 NW7       29.89F WCI  26
FORT CARSON    CLOUDY    36  28  72 NW6       29.88S
LIMON          CLOUDY    27  25  92 NW10      29.88F WCI  17
MONUMENT HILL  CLOUDY    28  25  86 NW5       29.88F WCI  23
TRINIDAD       CLOUDY    34  28  79 W12       29.89S WCI  25
$$

COZ042>045-048>051-090-091-311400-
...NORTHEAST COLORADO...

CITY           SKY/WX    TMP DP  RH WIND       PRES   REMARKS
GREELEY ARPT   MOCLDY    32  21  64 W3        29.91S
AKRON          FOG       30  30 100 N3        29.90S VSB 1/4
BURLINGTON     CLOUDY    31  29  92 SW5       29.90S WCI  26
WRAY           FOG      N/A N/A N/A CALM      29.92R VSB 3/4
STERLING       MOCLDY    32  32 100 CALM      29.91S
HOLYOKE        NOT AVBL
FORT MORGAN    MOCLDY    32  27  84 N3        29.92S
$$

COZ086-089-092>099-311400-
...SOUTHEAST COLORADO...

CITY           SKY/WX    TMP DP  RH WIND       PRES   REMARKS
PUEBLO         CLOUDY    32  31  96 NW5       29.90S WCI  27
LA JUNTA       CLOUDY    37  35  92 W5        29.90R
LAMAR          CLOUDY    37  36  96 SW6       29.88F
SPRINGFIELD      N/A     33  32  96 SW8G18    29.90F WCI  26
$$


USA.gov is the U.S. government's official web portal to all federal, state and local government web resources and services.